الصفحة الرئيسية
METAR-TAF:

METAR-TAF

مطار :

ألبوري, أستراليا

دائرة عرض: 36-04-06S, خط طول: 146-57-30E, ارتفاع: 164 متر

مراقبة الطقس الحالي

تاريخ ووقت الإصدار 16 دقيقة قبل الساعة 22:00UTC
ريح 5 عقدة من الجنوب
درجة الحرارة 14°درجة مئوية
الرطوبة 58%
ضغط 1013 hPa
الرؤية 10 كم أو أكثر

METAR: YMAY 052200Z AUTO 17005KT 9999 // NCD 14/06 Q1013

زمن: 09:16 (22:16 UTC)


TAF: مفقودة

أرصاد الطقس والتوقعات من أكثر من 4000 مطار (تقارير الطقس للمطار METAR والتنبؤ بالطقس بالمطارTAF).

المحطات المتاحة هي النقط الصفراء والحمراء على الخريطة.

حرك المؤشر فوق النقطة لمعرفة اسم المحطة.

ثم انقر لمعرفة أرصاد وتوقعات الطقس.

لتغيير الخارطة: اضغط على الأزرار الخضراء مع رمز الصليب الأسود للتكبير. على الزر الأخضر مع شرطة للتصغير، أو على الأسهم الخضراء للخرائط المجاورة.


METAR-TAF: